TimeEDT,TemperatureF,Dew PointF,Humidity,Sea Level PressureIn,VisibilityMPH,Wind Direction,Wind SpeedMPH,Gust SpeedMPH,PrecipitationIn,Events,Conditions,WindDirDegrees,DateUTC
12:54 AM,50.0,48.0,93,29.85,5.0,Calm,Calm,-,N/A,,Partly Cloudy,0,2013-06-13 04:54:00
1:54 AM,50.0,48.0,93,29.83,8.0,Calm,Calm,-,N/A,,Clear,0,2013-06-13 05:54:00
2:54 AM,48.0,46.0,93,29.82,6.0,Calm,Calm,-,N/A,,Clear,0,2013-06-13 06:54:00
3:54 AM,48.0,46.0,93,29.81,10.0,Calm,Calm,-,N/A,,Clear,0,2013-06-13 07:54:00
4:54 AM,46.0,45.0,96,29.80,8.0,Calm,Calm,-,N/A,,Clear,0,2013-06-13 08:54:00
5:54 AM,51.1,48.0,89,29.79,10.0,Calm,Calm,-,N/A,,Scattered Clouds,0,2013-06-13 09:54:00
6:54 AM,53.1,50.0,89,29.80,10.0,Calm,Calm,-,N/A,,Overcast,0,2013-06-13 10:54:00
11:33 AM,57.2,53.6,88,29.76,2.5,Calm,Calm,-,0.07,Rain,Rain,0,2013-06-13 15:33:00
11:46 AM,57.2,53.6,88,29.77,3.0,SSE,9.2,-,0.10,Rain,Light Rain,150,2013-06-13 15:46:00
11:54 AM,57.0,54.0,89,29.77,3.0,Calm,Calm,-,0.12,Rain,Light Rain,0,2013-06-13 15:54:00
12:02 PM,57.2,53.6,88,29.76,2.5,Calm,Calm,-,0.02,Rain,Light Rain,0,2013-06-13 16:02:00
12:10 PM,57.2,53.6,88,29.75,3.0,SE,8.1,-,0.04,Rain,Light Rain,140,2013-06-13 16:10:00
12:54 PM,57.0,54.0,89,29.71,3.0,Calm,Calm,-,0.13,Rain,Light Rain,0,2013-06-13 16:54:00
1:54 PM,57.9,53.1,84,29.70,3.0,Calm,Calm,-,0.10,Rain,Light Rain,0,2013-06-13 17:54:00
2:07 PM,57.2,53.6,88,29.70,2.5,Calm,Calm,-,0.04,Rain,Rain,0,2013-06-13 18:07:00
2:36 PM,57.2,53.6,88,29.69,3.0,Calm,Calm,-,0.13,Rain,Light Rain,0,2013-06-13 18:36:00
2:49 PM,57.2,53.6,88,29.70,2.0,Calm,Calm,-,0.17,Rain,Rain,0,2013-06-13 18:49:00
2:54 PM,57.0,54.0,89,29.70,2.5,Calm,Calm,-,0.19,Rain,Rain,0,2013-06-13 18:54:00
3:03 PM,57.2,53.6,88,29.70,3.0,Calm,Calm,-,0.02,Rain,Light Rain,0,2013-06-13 19:03:00
3:54 PM,57.0,52.0,83,29.71,3.0,Variable,3.5,-,0.14,Rain,Light Rain,0,2013-06-13 19:54:00
4:54 PM,57.0,52.0,83,29.70,6.0,Calm,Calm,-,0.10,Rain,Light Rain,0,2013-06-13 20:54:00
5:54 PM,55.9,51.1,84,29.68,9.0,East,9.2,-,0.04,Rain,Light Rain,80,2013-06-13 21:54:00
6:54 PM,55.9,50.0,80,29.70,10.0,East,8.1,-,0.01,Rain,Light Rain,80,2013-06-13 22:54:00
7:07 PM,55.4,50.0,82,29.70,10.0,East,5.8,-,0.01,Rain,Light Rain,100,2013-06-13 23:07:00
7:44 PM,55.4,48.2,77,29.69,10.0,East,5.8,-,0.02,Rain,Light Rain,80,2013-06-13 23:44:00
7:54 PM,55.0,48.9,80,29.70,10.0,East,8.1,-,0.02,Rain,Light Rain,80,2013-06-13 23:54:00
8:54 PM,55.0,48.0,77,29.69,10.0,Variable,5.8,-,0.01,Rain,Light Rain,0,2013-06-14 00:54:00
9:54 PM,54.0,46.9,77,29.69,10.0,East,9.2,-,0.02,Rain,Light Rain,90,2013-06-14 01:54:00
10:54 PM,54.0,45.0,72,29.70,10.0,East,5.8,-,0.03,Rain,Light Rain,100,2013-06-14 02:54:00
11:54 PM,51.1,48.9,92,29.70,10.0,Calm,Calm,-,0.02,Rain,Light Rain,0,2013-06-14 03:54:00